Location: Sternwarte_Laufen
(47.9344°N, 12.9346°E)
Time: 00:43:47
(UTC+02:00)

ISS - Pass Details

Date: 26 May 2017
Orbit: 402 x 408 km, 51.6° (Epoch: 27 May)

Event Time Altitude Azimuth Distance (km) Brightness Sun altitude
Rises 23:20:10 0° 264° (W) 2,330 0.3 -16.9°
Reaches altitude 10° 23:22:18 10° 269° (W) 1,470 -0.7 -17.0°
Maximum altitude 23:25:31 51° 347° (NNW) 520 -2.9 -17.3°
Drops below altitude 10° 23:28:45 10° 65° (ENE) 1,470 -1.0 -17.5°
Sets 23:30:52 0° 71° (ENE) 2,330 0.0 -17.6°
